Regional Weather Roundup
Issued by NWS Newport/Morehead, NC

Current Version | Previous Version | Graphics & Text | Print | Product List | Glossary On
Versions: 1 2 3 4 5 6 7 8 9 10 11 12 13 14 15 16 17 18 19 20 21 22 23 24 25 26 27 28 29 30 31 32 33 34 35 36 37 38 39 40 41 42 43 44 45 46 47 48 49 50
000 ASUS42 KMHX 280725 RWRMHX WEATHER ROUNDUP FOR EASTERN NORTH CAROLINA NATIONAL WEATHER SERVICE NEWPORT/MOREHEAD CITY NC 300 AM EDT TUE MAR 28 2017 NOTE: "FAIR" INDICATES FEW OR NO CLOUDS BELOW 12,000 FEET WITH NO SIGNIFICANT WEATHER AND/OR OBSTRUCTIONS TO VISIBILITY NCZ015>017-031-032-045>047-102-103-280800- NORTH COAST CITY SKY/WX TMP DP RH WIND PRES REMARKS EDENTON CLEAR 58 55 88 CALM 29.98F ELIZABETH CITY CLEAR 60 54 80 S6 29.98F KITTY HAWK NOT AVBL MANTEO MOCLDY 58 56 92 SW5 30.00S $$ NCZ045>047-081-094-103-104-280800- CENTRAL COAST CITY SKY/WX TMP DP RH WIND PRES REMARKS FRISCO PTCLDY 67 58 72 W7 30.00F HAZE $$ NCZ095-097-098-100-101-280800- SOUTHERN COAST CITY SKY/WX TMP DP RH WIND PRES REMARKS BEAUFORT PTCLDY 64 60 87 S9 29.99F CEDAR ISLAND NOT AVBL JACKSONVILLE CLOUDY 64 58 80 S7 29.98F PINEY ISLAND PTSUNNY N/A N/A N/A S6 29.98F WILMINGTON CLOUDY 67 58 72 S12 29.98F $$ NCZ011>013-027>030-043-044-078>080-089-090>093-098-280800- COASTAL PLAIN CITY SKY/WX TMP DP RH WIND PRES REMARKS AHOSKIE N/A 60 54 82 CALM 29.96F CLINTON PTCLDY 61 58 91 CALM 29.99F ELIZABETHTOWN PTCLDY 63 58 82 S3 29.99S GOLDSBORO PTCLDY 63 60 91 S5 29.97F GREENVILLE CLEAR 61 55 82 S5 30.00F HAVELOCK MOCLDY 62 58 86 S7 30.00F KENANSVILLE PTCLDY 61 57 88 CALM 29.99S KINSTON CLOUDY 62 56 82 CALM 29.99F NEW BERN CLOUDY 62 58 86 S7 29.99F RICHLANDS CLOUDY 63 57 81 SW3 30.00F ROCKY MOUNT CLEAR 62 56 80 S7 29.97F WASHINGTON CLOUDY 60 55 83 CALM 29.99F WHITEVILLE CLOUDY 63 58 84 S6 29.99S $$ AMZ130-135-150-152-154-156-158-170-250-252-270-ANZ085-086-088-633-658-670-280800- MARINE OBSERVATIONS STATION/POSITION TIME TEMP WIND PRES WAVE SWELL AIR SEA DIR/SP/G HT/PER HT/PER (UTC) (F) (DEG/KT/KT) (MB) (FT/S) (FT/S) CHESAPEAKE LIGHT NOT AVBL 64 E VA BEACH 0650 53 49 200/ 8/ 8 1015.5 4/ 9 3/ 9 DUCK 0700 62 49 200/ 8/ 10 1014.8 2 E DUCK 0700 50 N/A 3/10 2/11 OREGON INLET 0700 60 60 210/ 7/ 8 1015.5 13E OREGON INLT 0648 53 N/A 4/10 3/10 HATTERAS CG 0700 65 62 230/ 6/ 8 1015.5 DIAMOND BUOY 0650 71 74 190/ 17/ 21 1015.8 5/ 8 3/ 8 CAPE LOOKOUT 0700 66 210/ 7/ 8 1015.8 BEAUFORT LAB 0700 64 60 190/ 7/ 8 1014.7 30 SE NEW RVR IN 0708 66 210/ 8/ 10 1016.0 30 SE NEW RVR IN 0713 64 N/A 5/11 2/11 27 SE WRIGHTSVLE 0708 69 66 210/ 8/ 12 1015.2 5 SE WRIGHTSVLE 0608 63 60 210/ 10/ 12 1016.2 225 S CAPE HAT 0650 67 72 130/ 4/ 6 1017.4 5/10 5/10 41 SE CHARLESTON 0650 72 70 190/ 12/ 14 1016.1 5/10 5/10 $$

USA.gov is the U.S. government's official web portal to all federal, state and local government web resources and services.